Change the Weather History Date:

Sunday, February 5, 2012

  Actual Average Record
Temperature  
Mean Temperature 54 °F 54 °F  
Max Temperature 72 °F 67 °F 85 °F (1963)
Min Temperature 36 °F 41 °F 20 °F (1955)
Degree Days  
Heating Degree Days 11 11  
Month to date heating degree days 60 55  
Since 1 July heating degree days 1027 1049  
Cooling Degree Days 0 0  
Month to date cooling degree days 0 0  
Year to date cooling degree days 2 1  
Growing Degree Days 4 (Base 50)    
Moisture  
Dew Point 23 °F    
Average Humidity 34    
Maximum Humidity 52    
Minimum Humidity 15    
Precipitation  
Precipitation 0.00 in 0.03 in 0.88 in (1939)
Month to date precipitation 0.00 0.17  
Year to date precipitation 0.14 1.11  
Snow  
Snow 0.00 in - - ()
Month to date snowfall 0.0  
Snow Depth 0.00 in    
Sea Level Pressure  
Sea Level Pressure 30.00 in    
Wind  
Wind Speed 6 mph (SE)    
Max Wind Speed 17 mph    
Max Gust Speed 23 mph    
Visibility 10 miles    
Events      
T = Trace of Precipitation, MM = Missing Value Source: NWS Daily Summary

Daily Weather History Graph

Daily Weather History Graph

Search for Another Location

Airport or City:

Trip Planner

Search our weather history database for the weather conditions in past years. The results will help you decide how hot, cold, wet, or windy it might be!

Date:

Astronomy

Feb. 05, 2012 Rise Set
Actual Time 7:15 AM MST 6:00 PM MST
Civil Twilight 6:49 AM MST 6:26 PM MST
Nautical Twilight 6:20 AM MST 6:55 PM MST
Astronomical Twilight 5:51 AM MST 7:24 PM MST
Moon 4:07 PM MST (2/5) 5:23 AM MST (2/5)
Length of Visible Light 11h 36m
Length of Day
10h 45m
Waxing Gibbous, 95% of the Moon is Illuminated
Feb 5
Waxing Gibbous
Feb 7
Full
Feb 14
Last Quarter
Feb 21
New
Feb 29
First Quarter

Hourly Weather History & Observations

Time (MST) Temp. Windchill Dew Point Humidity Pressure Visibility Wind Dir Wind Speed Gust Speed Precip Events Conditions
12:53 AM 41.0 °F 35.8 °F 21.9 °F 47% 30.04 in 10.0 mi SSE 8.1 mph - N/A   Clear
1:53 AM 39.9 °F 34.5 °F 21.9 °F 49% 30.03 in 10.0 mi SE 8.1 mph - N/A   Clear
2:53 AM 39.0 °F - 21.9 °F 50% 30.01 in 10.0 mi Calm Calm - N/A   Clear
3:53 AM 37.9 °F - 21.9 °F 53% 30.01 in 10.0 mi Calm Calm - N/A   Clear
4:53 AM 41.0 °F 35.8 °F 21.9 °F 47% 30.02 in 10.0 mi SSE 8.1 mph - N/A   Clear
5:53 AM 39.9 °F 35.1 °F 21.9 °F 49% 30.03 in 10.0 mi SSE 6.9 mph - N/A   Clear
6:53 AM 39.9 °F 35.1 °F 21.9 °F 49% 30.05 in 10.0 mi SSE 6.9 mph - N/A   Clear
7:53 AM 42.1 °F 40.2 °F 21.9 °F 45% 30.07 in 10.0 mi SSE 3.5 mph - N/A   Clear
8:53 AM 46.9 °F - 23.0 °F 39% 30.07 in 10.0 mi SSE 9.2 mph - N/A   Clear
9:53 AM 55.0 °F - 23.0 °F 29% 30.06 in 10.0 mi ESE 10.4 mph 20.7 mph N/A   Clear
10:53 AM 57.0 °F - 23.0 °F 27% 30.06 in 10.0 mi ESE 12.7 mph 20.7 mph N/A   Clear
11:53 AM 63.0 °F - 24.1 °F 23% 30.01 in 10.0 mi ESE 13.8 mph - N/A   Clear
12:53 PM 66.0 °F - 21.9 °F 19% 29.98 in 10.0 mi SE 8.1 mph - N/A   Clear
1:53 PM 68.0 °F - 21.9 °F 17% 29.95 in 10.0 mi ESE 4.6 mph - N/A   Clear
2:53 PM 70.0 °F - 23.0 °F 17% 29.93 in 10.0 mi Calm Calm - N/A   Clear
3:53 PM 72.0 °F - 21.9 °F 15% 29.92 in 10.0 mi North 5.8 mph - N/A   Clear
4:53 PM 70.0 °F - 21.9 °F 16% 29.92 in 10.0 mi WNW 9.2 mph - N/A   Clear
5:53 PM 66.0 °F - 24.1 °F 20% 29.94 in 10.0 mi NNW 6.9 mph - N/A   Scattered Clouds
6:53 PM 62.1 °F - 24.1 °F 23% 29.96 in 10.0 mi NNW 6.9 mph - N/A   Partly Cloudy
7:53 PM 57.9 °F - 25.0 °F 28% 29.98 in 10.0 mi Calm Calm - N/A   Clear
8:53 PM 54.0 °F - 26.1 °F 34% 30.00 in 10.0 mi Calm Calm - N/A   Clear
9:53 PM 50.0 °F - 26.1 °F 39% 29.99 in 10.0 mi Calm Calm - N/A   Clear
10:53 PM 48.0 °F - 26.1 °F 42% 30.00 in 10.0 mi South 3.5 mph - N/A   Clear
11:53 PM 46.0 °F 43.1 °F 25.0 °F 44% 30.00 in 10.0 mi South 5.8 mph - N/A   Clear